Regional Weather Roundup
Issued by NWS Cleveland, OH

Home | Current Version | Previous Version | Text Only | Print | Product List | Glossary Off
Versions: 1 2 3 4 5 6 7 8 9 10 11 12 13 14 15 16 17 18 19 20 21 22 23 24 25 26 27 28 29 30 31 32 33 34 35 36 37 38 39 40 41 42 43 44 45 46 47 48 49 50

000
ASUS41 KCLE 270502
RWRCLE
OHIO REGIONAL WEATHER ROUNDUP
NATIONAL WEATHER SERVICE CLEVELAND, OH
100 AM EDT SAT AUG 27 2016

NOTE: "FAIR" INDICATES FEW OR NO CLOUDS BELOW 12,000 FEET WITH NO
SIGNIFICANT WEATHER AND/OR OBSTRUCTIONS TO VISIBILITY.

OHZ001>008-015>018-024>027-034-035-043-044-270600-
   NORTHWEST OHIO

CITY           SKY/WX    TMP DP  RH WIND       PRES   REMARKS
DEFIANCE       PTCLDY    73  65  75 CALM      30.13F
FINDLAY        PTCLDY    73  63  70 E8        30.13S
TOLEDO EXPRESS PTCLDY    69  67  93 CALM      30.14S
TOLEDO EXEC    PTCLDY    70  67  90 SE3       30.15S
LIMA           PTCLDY    70  68  93 E3        30.14S
$$

OHZ009>014-019>023-028>033-038-089-270600-
   NORTHEAST OHIO

CITY           SKY/WX    TMP DP  RH WIND       PRES   REMARKS
CLE-HOPKINS    PTCLDY    68  60  75 SE5       30.18F
CLE-LAKEFRONT  PTCLDY    73  61  65 SE3       30.15F
CUY CO. ARPT   NOT AVBL
LORAIN-ELYRIA  PTCLDY    62  58  86 CALM      30.16F
ASHTABULA      PTCLDY    60  60 100 CALM      30.19S
AKRON-CANTON   PTCLDY    68  60  75 NE6       30.18F
WOOSTER        PTCLDY    63  61  93 CALM      30.18S
MANSFIELD      CLOUDY    70  57  63 CALM      30.17F
YOUNGSTOWN     PTCLDY    64  60  87 E7        30.18F
$$

OHZ042-051>053-060>062-070>072-077>081-270600-
  SOUTHWEST OHIO

CITY           SKY/WX    TMP DP  RH WIND       PRES   REMARKS
CINC-COVINGTON CLOUDY    76  72  87 CALM      30.11F
CINC-LUNKEN    CLOUDY    72  72 100 CALM      30.10  FOG
HAMILTON       CLOUDY    70  69  97 CALM      30.12S
DAYTON         CLOUDY    72  69  90 E3        30.14F
WRIGHT-PAT AFB CLOUDY    74  74 100 CALM      30.12F
DAYTON GENERAL PTCLDY    72  69  90 NE8       30.12S
WILMINGTON     CLOUDY    73  71  93 E3        30.13R
$$

OHZ036-037-039>041-045>050-054>059-063>069-073>076-082>088-270600-
  CENTRAL AND SOUTHEAST OHIO

CITY           SKY/WX    TMP DP  RH WIND       PRES   REMARKS
COLUMBUS       CLEAR     74  66  76 NE5       30.12F
OSU AIRPORT    CLEAR     74  68  81 CALM      30.13S
BOLTON FIELD   CLEAR     73  69  87 CALM      30.14R
RICKENBACK AFB CLEAR     73  69  89 NE5       30.12R
NEWARK         CLEAR     72  70  93 CALM      30.13F
MARION         PTCLDY    70  62  76 E3        30.15F
LANCASTER      CLEAR     71  70  96 CALM      30.13F
ZANESVILLE     CLEAR     72  70  93 CALM      30.14F
NEW PHILLY     CLEAR     68  62  81 CALM      30.16F
$$




USA.gov is the U.S. government's official web portal to all federal, state and local government web resources and services.